This demonstration page uses our WeatherBlox Daily Observations layout. Learn more.

Left ArrowRight Arrow

Hourly Observations for December 25, 2015

Temp ( °F °C ) Dew Point ( °F °C ) Humidity (%) Winds ( mph kmh ) Pressure ( in mb ) Visibility ( mi km ) Precip ( " mm )
12:53 am 00:53 Mostly Cloudy 53 11.7 49 9.4 86 86 E 5 7 30.05 1018 10 16 N/A
1:53 am 01:53 Clear 53 11.7 49 9.4 86 86 E 6 9 30.06 1018 10 16 N/A
2:53 am 02:53 Clear 52 11.1 49 9.4 89 89 N N/A 30.09 1019 10 16 N/A
3:53 am 03:53 Clear 50 10 48 8.9 93 93 N N/A 30.10 1019 10 16 N/A
4:53 am 04:53 Partly Cloudy 49 9.4 47 8.3 93 93 N N/A 30.10 1019 10 16 N/A
5:53 am 05:53 Mostly Clear 53 11.7 47 8.3 80 80 NW 6 9 30.11 1020 10 16 N/A
6:53 am 06:53 Mostly Cloudy 50 10 46 7.8 86 86 N N/A 30.12 1020 10 16 N/A
7:53 am 07:53 Mostly Cloudy 52 11.1 45 7.2 77 77 N 5 7 30.15 1021 10 16 N/A
8:53 am 08:53 Cloudy 51 10.6 42 5.6 71 71 SSE 3 6 30.18 1022 10 16 N/A
9:53 am 09:53 Cloudy 51 10.6 42 5.6 71 71 N 5 7 30.19 1022 10 16 N/A
10:53 am 10:53 Mostly Cloudy 51 10.6 42 5.6 71 71 NNW 8 13 30.21 1023 10 16 N/A
11:53 am 11:53 Mostly Cloudy 51 10.6 41 5 69 69 N 8 13 30.20 1023 10 16 N/A
12:53 pm 12:53 Mostly Cloudy 51 10.6 41 5 69 69 N 8 13 30.19 1022 10 16 N/A
1:53 pm 13:53 Mostly Sunny 52 11.1 41 5 66 66 NNE 7 11 30.19 1022 10 16 N/A
2:53 pm 14:53 Sunny 53 11.7 42 5.6 66 66 NNE 9 15 30.20 1023 10 16 N/A
3:53 pm 15:53 Sunny 53 11.7 41 5 64 64 N 7 11 30.23 1024 10 16 N/A
4:53 pm 16:53 Mostly Sunny 51 10.6 41 5 69 69 N 8 13 30.24 1024 10 16 N/A
5:53 pm 17:53 Clear 49 9.4 40 4.4 71 71 NNE 8 13 30.25 1024 10 16 N/A
6:53 pm 18:53 Clear 48 8.9 40 4.4 74 74 NNE 7 11 30.26 1025 10 16 N/A
7:53 pm 19:53 Clear 47 8.3 39 3.9 74 74 NNE 6 9 30.28 1025 10 16 N/A
8:53 pm 20:53 Partly Cloudy 47 8.3 38 3.3 71 71 NE 8 13 30.28 1025 10 16 N/A
9:53 pm 21:53 Cloudy 47 8.3 39 3.9 74 74 ENE 6 9 30.30 1026 10 16 N/A
10:53 pm 22:53 Cloudy 46 7.8 39 3.9 77 77 ENE 6 9 30.29 1026 10 16 N/A
11:53 pm 23:53 Cloudy 47 8.3 38 3.3 71 71 ENE 9 15 30.29 1026 10 16 N/A

Powered by AerisWeather